Regional Weather Roundup
Issued by NWS

Home | Current Version | Previous Version | Text Only | Print | Product List | Glossary Off
Versions: 1 2 3 4 5 6 7 8 9 10 11 12 13 14 15 16 17 18 19 20 21 22 23 24 25 26 27 28 29 30 31 32 33 34 35 36 37 38 39 40 41 42 43 44 45 46 47 48 49 50

526
ASUS45 KABQ 231201
RWRNM
NEW MEXICO REGIONAL WEATHER ROUNDUP
NATIONAL WEATHER SERVICE ALBUQUERQUE NM
600 AM MDT MON OCT 23 2017

NOTE: "FAIR" MEANS FEW OR NO CLOUDS BELOW 12,000 FEET AGL WITH NO
       SIGNIFICANT WEATHER OR OBSTRUCTIONS TO VISION.

      THIS PRODUCT IS RELEASED AS TWO VERSIONS.  ONE VERSION NEAR
      THE TOP OF THE HOUR CONTAINING PRELIMINARY DATA FROM ALBUQUERQUE
      AND OTHER STATIONS.  A FINAL VERSION WITH ADDITIONAL DATA IS
      ISSUED ABOUT 10 MINUTES AFTER THE HOUR.

NMZ501-503-504-510>518-231300-
NORTHWEST PLATEAU/NORTHCENTRAL MOUNTAINS

CITY           SKY/WX    TMP DP  RH WIND       PRES   REMARKS
FARMINGTON     FAIR      40  23  50 SW3       30.39R
6HR MIN TEMP:  37; 6HR MAX TEMP:  47;

LOS ALAMOS     FAIR      45  20  38 S3        30.42F
SANTA FE       FAIR      38  24  57 E5        30.39R WCI  34
6HR MIN TEMP:  38; 6HR MAX TEMP:  50;

TAOS           FAIR      26  19  74 N8        30.44S WCI  18
ANGEL FIRE     FAIR      21  19  90 CALM      30.47S

$$
NMZ402-403-502-505>509-231300-
WESTCENTRAL MOUNTAINS/SOUTHWEST MOUNTAINS

CITY           SKY/WX    TMP DP  RH WIND       PRES   REMARKS
GALLUP         FAIR      27  15  61 NE5       30.49R WCI  22
6HR MIN TEMP:  25; 6HR MAX TEMP:  34;

GRANTS         FAIR      33  22  63 NW7G18    30.49R WCI  26
SILVER CITY    FAIR      44  21  40 CALM      30.34R

$$
NMZ407-409-411-412-231300-
SOUTHERN DESERTS

CITY           SKY/WX    TMP DP  RH WIND       PRES   REMARKS
DEMING         FAIR      42  26  53 CALM      30.29R
6HR MIN TEMP:  39; 6HR MAX TEMP:  53;

LAS CRUCES     FAIR      55  23  29 N10       30.30R
ALAMOGORDO     FAIR      41  32  70 CALM      30.26S
T OR C         FAIR      56  22  26 N5        30.31S
6HR MIN TEMP:  50; 6HR MAX TEMP:  59;


$$
NMZ519>523-231300-
CENTRAL VALLEYS/CENTRAL HIGHLANDS

CITY           SKY/WX    TMP DP  RH WIND       PRES   REMARKS
ALBUQUERQUE    FAIR      56  23  27 N10       30.37S
6HR MIN TEMP:  50; 6HR MAX TEMP:  59;

DOUBLE EAGLE   CLEAR     39  21  48 NW7       30.40  WCI  34
MORIARTY ARPT  FAIR      52  21  29 N12       30.35S
6HR MIN TEMP:  38; 6HR MAX TEMP:  58;

CLINES CORNERS FAIR      46  19  34 NW25      30.35S
6HR MIN TEMP:  41; 6HR MAX TEMP:  50;

BELEN          NOT AVBL
SOCORRO        NOT AVBL

$$
NMZ524>526-539-540-231300-
SOUTHCENTRAL MOUNTAINS

CITY           SKY/WX    TMP DP  RH WIND       PRES   REMARKS
RUIDOSO        FAIR      55  14  19 SW9       30.37S

$$
NMZ527>531-231300-
NORTHEAST HIGHLANDS/NORTHEAST PLAINS

CITY           SKY/WX    TMP DP  RH WIND       PRES   REMARKS
LAS VEGAS      FAIR      56  21  25 NW7       30.31S
6HR MIN TEMP:  47; 6HR MAX TEMP:  56;

RATON          FAIR      38  28  67 E10       30.27R WCI  31
6HR MIN TEMP:  36; 6HR MAX TEMP:  44;

CLAYTON        FAIR      51  28  41 N8        30.20R
6HR MIN TEMP:  46; 6HR MAX TEMP:  59;


$$
NMZ532>537-231300-
EASTCENTRAL PLAINS

CITY           SKY/WX    TMP DP  RH WIND       PRES   REMARKS
SANTA ROSA     FAIR      57  24  27 NW3       30.19R
TUCUMCARI      FAIR      48  33  56 W10       30.14R
6HR MIN TEMP:  43; 6HR MAX TEMP:  51;

CANNON AFB     NOT AVBL
CLOVIS AIRPORT   N/A     54  33  45 NW12      30.14R

$$
NMZ028-029-538-231300-
SOUTHEAST PLAINS

CITY           SKY/WX    TMP DP  RH WIND       PRES   REMARKS
ROSWELL        FAIR      43  38  82 CALM      30.17R
6HR MIN TEMP:  41; 6HR MAX TEMP:  48;

ARTESIA        FAIR      46  34  61 CALM      30.17R
CARLSBAD       FAIR      43  42  97 NW7       30.14S
6HR MIN TEMP:  42; 6HR MAX TEMP:  52;

HOBBS          CLEAR     46  37  71 W9        30.15S


$$




USA.gov is the U.S. government's official web portal to all federal, state and local government web resources and services.